KB6LA Weather Reports


time (UTC)temp
C
wind
direction
speed
KPH
gust
KPH
rain 1hr
cm
rain 24hr
cm
rain mn
cm
humidity
%
barometer
mb
20260504234508 16 240 22.5 35.4 0.00 0.00 0.00 75 1013.8
20260504233453 16 267 19.3 30.6 0.00 0.00 0.00 73 1013.4
20260504232945 16 226 17.7 30.6 0.00 0.00 0.00 73 1013.4
20260504232438 16 240 19.3 30.6 0.00 0.00 0.00 73 1013.4
20260504231931 16 251 22.5 27.4 0.00 0.00 0.00 74 1013.8
20260504231424 16 237 25.7 27.4 0.00 0.00 0.00 74 1013.8
20260504230916 16 243 17.7 29.0 0.00 0.00 0.00 75 1013.8
20260504225901 16 225 20.9 33.8 0.00 0.00 0.00 73 1013.8
20260504225354 17 263 8.0 33.8 0.00 0.00 0.00 72 1013.8
20260504224847 16 272 22.5 30.6 0.00 0.00 0.00 73 1013.8
20260504223325 17 263 20.9 35.4 0.00 0.00 0.00 71 1014.1
20260504222819 16 260 11.3 37.0 0.00 0.00 0.00 73 1014.1
20260504222311 17 237 20.9 37.0 0.00 0.00 0.00 71 1014.1
20260504221803 17 277 16.1 38.6 0.00 0.00 0.00 72 1013.8
20260504215735 16 215 12.9 29.0 0.00 0.00 0.00 71 1014.5
20260504215227 17 227 14.5 29.0 0.00 0.00 0.00 72 1014.5
20260504214720 17 252 22.5 29.0 0.00 0.00 0.00 68 1014.5
20260504214213 17 328 8.0 33.8 0.00 0.00 0.00 69 1014.8
20260504213706 17 232 11.3 33.8 0.00 0.00 0.00 69 1014.8
20260504213158 17 207 16.1 29.0 0.00 0.00 0.00 68 1014.8
20260504212651 17 181 17.7 27.4 0.00 0.00 0.00 70 1014.5
20260504212143 17 277 14.5 25.7 0.00 0.00 0.00 68 1014.5
20260504211636 17 216 9.7 30.6 0.00 0.00 0.00 68 1014.8
20260504210621 17 220 24.1 30.6 0.00 0.00 0.00 65 1014.8
20260504210114 16 310 6.4 30.6 0.00 0.00 0.00 67 1014.8
20260504205100 17 226 20.9 27.4 0.00 0.00 0.00 65 1014.8
20260504204553 17 250 12.9 29.0 0.00 0.00 0.00 65 1014.8
20260504204046 17 211 17.7 29.0 0.00 0.00 0.00 65 1014.8
20260504203537 17 232 17.7 30.6 0.00 0.00 0.00 63 1014.8
20260504203030 17 173 17.7 30.6 0.00 0.00 0.00 66 1014.8
20260504202523 17 211 20.9 29.0 0.00 0.00 0.00 63 1014.8
20260504202016 17 233 20.9 29.0 0.00 0.00 0.00 61 1014.8
20260504201509 17 223 22.5 29.0 0.00 0.00 0.00 62 1014.8
20260504201001 17 255 14.5 29.0 0.00 0.00 0.00 61 1014.5
20260504200454 17 259 14.5 30.6 0.00 0.00 0.00 60 1014.8
20260504195946 17 220 25.7 30.6 0.00 0.00 0.00 58 1014.8
20260504195440 17 210 9.7 25.7 0.00 0.00 0.00 59 1014.5
20260504194932 17 218 9.7 25.7 0.00 0.00 0.00 62 1014.8
20260504194424 17 208 16.1 27.4 0.00 0.00 0.00 62 1014.8
20260504193917 17 273 17.7 29.0 0.00 0.00 0.00 59 1014.8
20260504193410 17 175 16.1 29.0 0.00 0.00 0.00 61 1014.8
20260504192903 17 299 11.3 30.6 0.00 0.00 0.00 62 1014.8
20260504192356 17 261 17.7 30.6 0.00 0.00 0.00 60 1014.8
20260504191849 17 248 19.3 25.7 0.00 0.00 0.00 64 1014.8
20260504191341 17 257 11.3 29.0 0.00 0.00 0.00 64 1014.5
20260504190835 16 231 14.5 29.0 0.00 0.00 0.00 62 1014.8
20260504190326 17 235 16.1 27.4 0.00 0.00 0.00 61 1014.8
20260504185819 17 264 14.5 25.7 0.00 0.00 0.00 60 1014.8
20260504185312 17 258 19.3 27.4 0.00 0.00 0.00 60 1015.1
20260504184805 16 238 19.3 30.6 0.00 0.00 0.00 62 1014.8
20260504184257 16 313 11.3 30.6 0.00 0.00 0.00 65 1014.8
20260504183751 16 236 16.1 29.0 0.00 0.00 0.00 64 1014.8
20260504183243 16 238 19.3 33.8 0.00 0.00 0.00 63 1015.1
20260504182736 16 226 25.7 29.0 0.00 0.00 0.00 64 1014.8
20260504181721 16 243 9.7 29.0 0.00 0.00 0.00 66 1014.8
20260504180706 16 228 19.3 30.6 0.00 0.00 0.00 66 1015.1
20260504180159 16 233 24.1 35.4 0.00 0.00 0.00 66 1015.1
20260504175145 16 226 9.7 29.0 0.00 0.00 0.00 66 1014.8
20260504174638 16 206 20.9 29.0 0.00 0.00 0.00 66 1014.8
20260504173623 16 222 19.3 30.6 0.00 0.00 0.00 64 1014.8
20260504173115 16 226 14.5 25.7 0.00 0.00 0.00 66 1014.8
20260504172608 16 273 12.9 25.7 0.00 0.00 0.00 68 1014.8
20260504172101 16 229 14.5 24.1 0.00 0.00 0.00 66 1014.8
20260504171553 16 262 16.1 20.9 0.00 0.00 0.00 68 1014.5
20260504171046 16 208 9.7 24.1 0.00 0.00 0.00 70 1014.5
20260504160412 17 259 1.6 6.4 0.00 0.00 0.00 63 1014.1
20260504150752 16 47 3.2 4.8 0.00 0.00 0.00 70 1013.8
20260504150245 16 350 1.6 4.8 0.00 0.00 0.00 72 1014.1
20260504141132 13 248 0.0 1.6 0.00 0.00 0.00 80 1013.8
20260504140625 13 253 1.6 1.6 0.00 0.00 0.00 80 1013.8
20260504140118 13 263 0.0 1.6 0.00 0.00 0.00 80 1013.8
20260504130459 13 272 1.6 3.2 0.00 0.00 0.00 79 1013.4
20260504110711 14 289 0.0 3.2 0.00 0.00 0.00 82 1013.4
20260504100543 14 358 0.0 4.8 0.00 0.00 0.00 80 1012.8
20260504081811 14 242 3.2 6.4 0.00 0.00 0.00 82 1014.1
20260504081304 14 229 3.2 6.4 0.00 0.00 0.00 81 1014.1
20260504080757 14 231 3.2 4.8 0.00 0.00 0.00 81 1014.5
20260504080249 14 274 1.6 4.8 0.00 0.00 0.00 80 1014.5
20260504070122 14 276 1.6 12.9 0.00 0.00 0.00 79 1014.1
20260504050334 15 260 11.3 14.5 0.00 0.00 0.00 77 1014.1
20260504045828 15 275 4.8 14.5 0.00 0.00 0.00 76 1013.4
20260504045320 15 285 4.8 14.5 0.00 0.00 0.00 76 1013.8
20260504044813 15 277 8.0 14.5 0.00 0.00 0.00 76 1013.8
20260504044306 15 276 4.8 12.9 0.00 0.00 0.00 76 1013.8
20260504043759 15 255 4.8 16.1 0.00 0.00 0.00 76 1013.8
20260504043252 15 200 9.7 16.1 0.00 0.00 0.00 76 1013.8
20260504042744 15 227 12.9 16.1 0.00 0.00 0.00 76 1013.4
20260504042237 15 242 9.7 12.9 0.00 0.00 0.00 76 1013.8
20260504041730 15 257 4.8 12.9 0.00 0.00 0.00 77 1013.4
20260504041223 15 228 8.0 12.9 0.00 0.00 0.00 77 1013.4
20260504035700 15 198 6.4 14.5 0.00 0.00 0.00 78 1013.4
20260504035153 15 227 4.8 14.5 0.00 0.00 0.00 79 1013.1
20260504034140 15 200 9.7 14.5 0.00 0.00 0.00 79 1013.1
20260504033631 15 219 9.7 16.1 0.00 0.00 0.00 79 1013.1
20260504033124 15 228 11.3 16.1 0.00 0.00 0.00 79 1013.1
20260504032109 15 251 6.4 11.3 0.00 0.00 0.00 79 1013.1
20260504031055 15 238 8.0 9.7 0.00 0.00 0.00 79 1012.8
20260504030548 15 207 6.4 12.9 0.00 0.00 0.00 78 1012.8
20260504030041 15 255 3.2 12.9 0.00 0.00 0.00 78 1012.8
20260504025534 15 218 8.0 12.9 0.00 0.00 0.00 78 1012.8
20260504025025 15 249 3.2 16.1 0.00 0.00 0.00 78 1012.4
20260504024518 15 269 6.4 17.7 0.00 0.00 0.00 78 1012.8
20260504024011 15 228 8.0 17.7 0.00 0.00 0.00 78 1012.4
20260504023504 15 250 8.0 25.7 0.00 0.00 0.00 77 1012.8
20260504022957 15 247 14.5 25.7 0.00 0.00 0.00 77 1012.4
20260504022450 15 260 8.0 22.5 0.00 0.00 0.00 76 1012.4
20260504021942 15 248 12.9 22.5 0.00 0.00 0.00 76 1012.4
20260504021435 15 223 12.9 20.9 0.00 0.00 0.00 76 1012.4
20260504020928 15 215 17.7 20.9 0.00 0.00 0.00 75 1012.4
20260504020420 15 250 9.7 17.7 0.00 0.00 0.00 74 1012.4
20260504015912 15 254 6.4 17.7 0.00 0.00 0.00 75 1012.4
20260504015405 15 211 14.5 17.7 0.00 0.00 0.00 74 1012.4
20260504014858 15 181 9.7 17.7 0.00 0.00 0.00 75 1012.4
20260504014351 15 243 9.7 25.7 0.00 0.00 0.00 75 1012.4
20260504013844 15 203 12.9 25.7 0.00 0.00 0.00 76 1012.1
20260504013336 15 216 17.7 24.1 0.00 0.00 0.00 76 1012.4
20260504012829 15 309 9.7 24.1 0.00 0.00 0.00 75 1012.1
20260504012321 15 223 16.1 24.1 0.00 0.00 0.00 75 1012.4
20260504011814 15 254 12.9 22.5 0.00 0.00 0.00 74 1012.4
20260504011307 15 235 19.3 22.5 0.00 0.00 0.00 72 1012.4
20260504010800 15 235 11.3 20.9 0.00 0.00 0.00 73 1012.1
20260504010253 15 253 14.5 20.9 0.00 0.00 0.00 73 1012.1
20260504005238 15 244 14.5 20.9 0.00 0.00 0.00 72 1012.1
20260504004731 16 246 14.5 20.9 0.00 0.00 0.00 70 1012.1
20260504004224 16 280 6.4 22.5 0.00 0.00 0.00 71 1012.1
20260504003717 16 244 14.5 22.5 0.00 0.00 0.00 70 1012.1
20260504003209 16 231 9.7 25.7 0.00 0.00 0.00 70 1012.1
20260504002702 16 241 11.3 25.7 0.00 0.00 0.00 69 1011.8
20260504002155 16 245 9.7 17.7 0.00 0.00 0.00 67 1012.1
20260504001648 16 249 9.7 20.9 0.00 0.00 0.00 68 1012.1
20260504000633 16 264 14.5 20.9 0.00 0.00 0.00 69 1012.1
20260504000125 16 264 9.7 17.7 0.00 0.00 0.00 71 1011.8
20260503235618 15 215 11.3 25.7 0.00 0.00 0.00 72 1011.8
20260503235111 15 231 19.3 25.7 0.00 0.00 0.00 72 1011.8